This demonstration page uses our WeatherBlox Daily Observations layout. Learn more.

Left ArrowRight Arrow

38.89511, -77.03637

Hourly Observations for June 14, 2022

Temp ( °F °C ) Dew Point ( °F °C ) Humidity (%) Winds ( mph kmh ) Pressure ( in mb ) Visibility ( mi km ) Precip ( " mm )
12:52 am 00:52 Cloudy 79 26.1 74 23.3 85 85 Calm 29.91 1013 10 16 0.00 0.00
1:52 am 01:52 Cloudy 78 25.6 74 23.3 87 87 Calm 29.89 1012 9 14 0.00 0.00
2:52 am 02:52 Cloudy 78 25.6 74 23.3 87 87 Calm 29.88 1012 7 11 0.00 0.00
3:52 am 03:52 Cloudy with Mist and Fog 77 25 74 23.3 90 90 ENE 5 7 29.84 1011 6 10 0.00 0.00
4:52 am 04:52 Cloudy 78 25.6 73 22.8 85 85 Calm 29.87 1012 7 11 0.00 0.00
5:52 am 05:52 Cloudy 77 25 73 22.8 88 88 Calm 29.87 1012 9 14 0.00 0.00
6:25 am 06:25 Cloudy with Nearby Thunderstorms 78 25.6 73 22.8 85 85 NNW 6 9 29.88 1012 10 16 0.00 0.00
6:52 am 06:52 Cloudy 78 25.6 72 22.2 82 82 NNE 6 9 29.86 1011 10 16 0.00 0.00
7:52 am 07:52 Cloudy 79 26.1 73 22.8 82 82 N 9 15 29.88 1012 10 16 0.00 0.00
8:52 am 08:52 Cloudy 81 27.2 72 22.2 74 74 NE 12 19 29.90 1013 9 14 0.00 0.00
9:52 am 09:52 Cloudy 79 26.1 68 20 69 69 NE 9 15 29.91 1013 10 16 0.00 0.00
10:52 am 10:52 Cloudy 78 25.6 66 18.9 67 67 ENE 12 19 29.90 1013 10 16 0.00 0.00
11:52 am 11:52 Cloudy 77 25 66 18.9 69 69 NE 8 13 29.92 1013 10 16 0.00 0.00
12:52 pm 12:52 Cloudy 79 26.1 66 18.9 65 65 NE 8 13 29.92 1013 10 16 0.00 0.00
1:15 pm 13:15 Cloudy 76 24.4 65 18.3 69 69 NE 13 20 29.93 1013 10 16 0.00 0.00
1:52 pm 13:52 Cloudy 75 23.9 64 17.8 69 69 NE 8 13 29.95 1014 10 16 0.00 0.00
2:08 pm 14:08 Cloudy with Light Rain 73 22.8 66 18.9 79 79 NNE 7 11 29.95 1014 4 6 0.00 0.00
2:20 pm 14:20 Cloudy with Light Rain 73 22.8 67 19.4 81 81 ENE 5 7 29.94 1014 3 4 0.04 1.02
2:26 pm 14:26 Cloudy with Light Rain 74 23.3 67 19.4 79 79 ENE 3 6 29.94 1014 7 11 0.04 1.02
2:52 pm 14:52 Mostly Cloudy 76 24.4 67 19.4 74 74 E 3 6 29.93 1013 10 16 0.04 1.02
3:52 pm 15:52 Cloudy 82 27.8 70 21.1 67 67 N 8 13 29.91 1013 10 16 0.00 0.00
4:52 pm 16:52 Mostly Cloudy 84 28.9 69 20.6 61 61 NNW 16 26 29.91 1013 10 16 0.00 0.00
5:52 pm 17:52 Mostly Cloudy 84 28.9 68 20 59 59 N 14 22 29.91 1013 10 16 0.00 0.00
6:52 pm 18:52 Mostly Cloudy 82 27.8 67 19.4 60 60 N 12 19 29.90 1013 10 16 0.00 0.00
7:52 pm 19:52 Partly Cloudy 81 27.2 67 19.4 62 62 N 10 17 29.92 1013 10 16 0.00 0.00
8:52 pm 20:52 Mostly Cloudy 79 26.1 66 18.9 65 65 N 9 15 29.93 1014 10 16 0.00 0.00
9:52 pm 21:52 Mostly Cloudy 77 25 67 19.4 71 71 N 9 15 29.97 1015 10 16 0.00 0.00
10:52 pm 22:52 Mostly Cloudy 76 24.4 67 19.4 74 74 N 6 9 29.99 1016 10 16 0.00 0.00
11:52 pm 23:52 Mostly Cloudy 75 23.9 66 18.9 74 74 NNE 8 13 29.99 1016 10 16 0.00 0.00

Powered by AerisWeather